Tahlequah, OK

12:47 PM CST on February 13, 2016 (GMT -0600)
Tahlequah Municipal

Weather History for KTQH - July, 2013

Change the Weather History Date:

Saturday, July 27, 2013

  Actual Average (KMKO) Record (KMKO)
Temperature  
Mean Temperature 71 °F -  
Max Temperature 82 °F 90 °F 104 °F (1998)
Min Temperature 60 °F 69 °F 57 °F (2004)
Cooling Degree Days 6    
Growing Degree Days 21 (Base 50)    
Moisture  
Dew Point 63 °F    
Average Humidity 78    
Maximum Humidity 100    
Minimum Humidity 45    
Precipitation  
Precipitation 0.00 in - - ()
Sea Level Pressure  
Sea Level Pressure 30.03 in    
Wind  
Wind Speed 1 mph (NNW)    
Max Wind Speed 9 mph    
Max Gust Speed -    
Visibility 7 miles    
Events Fog    
Averages and records for this station are not official NWS values.
T = Trace of Precipitation, MM = Missing Value Source: NWS Daily Summary

Daily Weather History Graph

Daily Weather History Graph

Search for Another Location

Airport or City:

Trip Planner

Search our weather history database for the weather conditions in past years. The results will help you decide how hot, cold, wet, or windy it might be!

Date:

Astronomy

Jul. 27, 2013 Rise Set
Actual Time 6:23 AM CDT 8:28 PM CDT
Civil Twilight 5:55 AM CDT 8:57 PM CDT
Nautical Twilight 5:20 AM CDT 9:31 PM CDT
Astronomical Twilight 4:42 AM CDT 10:09 PM CDT
Moon 11:30 PM CDT (7/27) 11:52 AM CDT (7/27)
Length of Visible Light 15h 01m
Length of Day
14h 04m
Waning Gibbous, 70% of the Moon is Illuminated
Jul 27
Waning Gibbous
Jul 29
Last Quarter
Aug 6
New
Aug 14
First Quarter
Aug 20
Full

Hourly Weather History & Observations

Time (CDT) Temp. Heat Index Dew Point Humidity Pressure Visibility Wind Dir Wind Speed Gust Speed Precip Events Conditions
12:15 AM 62.6 °F - 62.6 °F 100% 30.05 in 0.5 mi Calm Calm - N/A Fog Fog
12:35 AM 62.6 °F - 62.6 °F 100% 30.06 in 0.2 mi Calm Calm - N/A Fog Fog
12:55 AM 62.6 °F - 62.6 °F 100% 30.06 in 2.0 mi Calm Calm - N/A   Overcast
1:15 AM 62.6 °F - 62.6 °F 100% 30.05 in 4.0 mi Calm Calm - N/A   Scattered Clouds
1:35 AM 62.6 °F - 62.6 °F 100% 30.05 in 1.2 mi Calm Calm - N/A   Mist
1:55 AM 62.6 °F - 62.6 °F 100% 30.05 in 0.2 mi Calm Calm - N/A Fog Fog
2:15 AM 62.6 °F - 62.6 °F 100% 30.05 in 0.2 mi Calm Calm - N/A Fog Fog
2:35 AM 62.6 °F - 62.6 °F 100% 30.04 in 0.8 mi Calm Calm - N/A   Overcast
2:55 AM 62.6 °F - 62.6 °F 100% 30.04 in 0.5 mi Calm Calm - N/A Fog Fog
3:15 AM 62.6 °F - 62.6 °F 100% 30.04 in 1.2 mi Calm Calm - N/A   Mostly Cloudy
3:35 AM 60.8 °F - 60.8 °F 100% 30.04 in 0.2 mi Calm Calm - N/A Fog Fog
3:55 AM 60.8 °F - 60.8 °F 100% 30.03 in 0.5 mi Calm Calm - N/A Fog Fog
4:15 AM 60.8 °F - 60.8 °F 100% 30.03 in 1.2 mi Calm Calm - N/A   Mist
4:35 AM 62.6 °F - 62.6 °F 100% 30.03 in 7.0 mi Calm Calm - N/A   Scattered Clouds
4:55 AM 62.6 °F - 62.6 °F 100% 30.03 in 5.0 mi Calm Calm - N/A   Mostly Cloudy
5:15 AM 62.6 °F - 62.6 °F 100% 30.03 in 10.0 mi Calm Calm - N/A   Overcast
5:35 AM 64.4 °F - 64.4 °F 100% 30.03 in 5.0 mi Calm Calm - N/A   Overcast
5:55 AM 64.4 °F - 64.4 °F 100% 30.04 in 4.0 mi Calm Calm - N/A   Overcast
6:15 AM 64.4 °F - 64.4 °F 100% 30.04 in 4.0 mi Calm Calm - N/A   Overcast
6:35 AM 64.4 °F - 64.4 °F 100% 30.04 in 4.0 mi Calm Calm - N/A   Overcast
6:55 AM 64.4 °F - 64.4 °F 100% 30.04 in 4.0 mi Calm Calm - N/A   Overcast
7:15 AM 66.2 °F - 64.4 °F 94% 30.04 in 4.0 mi Calm Calm - N/A   Overcast
7:35 AM 66.2 °F - 66.2 °F 100% 30.05 in 4.0 mi Calm Calm - N/A   Overcast
7:55 AM 68.0 °F - 66.2 °F 94% 30.06 in 5.0 mi Calm Calm - N/A   Overcast
8:15 AM 66.2 °F - 66.2 °F 100% 30.06 in 3.0 mi Calm Calm - N/A   Overcast
8:35 AM 68.0 °F - 66.2 °F 94% 30.06 in 5.0 mi Calm Calm - N/A   Overcast
8:55 AM 68.0 °F - 68.0 °F 100% 30.06 in 7.0 mi Calm Calm - N/A   Overcast
9:15 AM 68.0 °F - 68.0 °F 100% 30.07 in 10.0 mi North 4.6 mph - N/A   Overcast
9:35 AM 68.0 °F - 68.0 °F 100% 30.08 in 7.0 mi Calm Calm - N/A   Overcast
9:55 AM 68.0 °F - 68.0 °F 100% 30.09 in 10.0 mi Calm Calm - N/A   Overcast
10:15 AM 69.8 °F - 68.0 °F 94% 30.09 in 10.0 mi Calm Calm - N/A   Overcast
10:35 AM 71.6 °F - 68.0 °F 88% 30.09 in 10.0 mi Calm Calm - N/A   Mostly Cloudy
10:55 AM 73.4 °F - 68.0 °F 83% 30.08 in 10.0 mi Calm Calm - N/A   Scattered Clouds
11:15 AM 75.2 °F - 68.0 °F 78% 30.07 in 10.0 mi Calm Calm - N/A   Mostly Cloudy
11:35 AM 77.0 °F - 66.2 °F 69% 30.06 in 10.0 mi Calm Calm - N/A   Mostly Cloudy
11:55 AM 77.0 °F - 64.4 °F 65% 30.06 in 10.0 mi Calm Calm - N/A   Scattered Clouds
12:15 PM 78.8 °F - 64.4 °F 61% 30.06 in 10.0 mi North 4.6 mph - N/A   Scattered Clouds
12:35 PM 78.8 °F - 64.4 °F 61% 30.05 in 10.0 mi North 3.5 mph - N/A   Scattered Clouds
12:55 PM 80.6 °F 81.8 °F 62.6 °F 54% 30.05 in 10.0 mi North 6.9 mph - N/A   Scattered Clouds
1:15 PM 80.6 °F 81.1 °F 59.0 °F 48% 30.05 in 10.0 mi North 5.8 mph - N/A   Scattered Clouds
1:35 PM 80.6 °F 81.1 °F 59.0 °F 48% 30.04 in 10.0 mi North 3.5 mph - N/A   Clear
1:55 PM 80.6 °F 81.5 °F 60.8 °F 51% 30.03 in 10.0 mi North 6.9 mph - N/A   Clear
2:15 PM 80.6 °F 81.1 °F 59.0 °F 48% 30.03 in 10.0 mi North 6.9 mph - N/A   Clear
2:35 PM 80.6 °F 81.1 °F 59.0 °F 48% 30.03 in 10.0 mi North 9.2 mph - N/A   Clear
2:55 PM 82.4 °F 82.9 °F 60.8 °F 48% 30.02 in 10.0 mi NNW 6.9 mph - N/A   Clear
3:15 PM 82.4 °F 82.5 °F 59.0 °F 45% 30.02 in 10.0 mi NNW 4.6 mph - N/A   Clear
3:35 PM 82.4 °F 82.9 °F 60.8 °F 48% 30.01 in 10.0 mi NW 5.8 mph - N/A   Clear
3:55 PM 82.4 °F 82.9 °F 60.8 °F 48% 30.01 in 10.0 mi NNW 8.1 mph - N/A   Clear
4:15 PM 82.4 °F 82.9 °F 60.8 °F 48% 30.01 in 10.0 mi WNW 6.9 mph - N/A   Clear
4:35 PM 82.4 °F 82.9 °F 60.8 °F 48% 30.00 in 10.0 mi NNW 5.8 mph - N/A   Clear
4:55 PM 82.4 °F 82.9 °F 60.8 °F 48% 30.00 in 10.0 mi NW 3.5 mph - N/A   Clear
5:15 PM 82.4 °F 82.9 °F 60.8 °F 48% 30.00 in 10.0 mi North 9.2 mph - N/A   Clear
5:35 PM 82.4 °F 82.9 °F 60.8 °F 48% 30.00 in 10.0 mi NW 6.9 mph - N/A   Clear
5:55 PM 80.6 °F 81.5 °F 60.8 °F 51% 30.00 in 10.0 mi NNW 8.1 mph - N/A   Clear
6:15 PM 80.6 °F 81.5 °F 60.8 °F 51% 30.00 in 10.0 mi North 8.1 mph - N/A   Clear
6:35 PM 80.6 °F 81.5 °F 60.8 °F 51% 30.00 in 10.0 mi North 4.6 mph - N/A   Clear
6:55 PM 78.8 °F - 60.8 °F 54% 29.99 in 10.0 mi North 4.6 mph - N/A   Clear
7:15 PM 78.8 °F - 62.6 °F 57% 29.99 in 10.0 mi NNW 5.8 mph - N/A   Clear
7:35 PM 77.0 °F - 62.6 °F 61% 29.99 in 10.0 mi North 5.8 mph - N/A   Clear
7:55 PM 75.2 °F - 62.6 °F 65% 29.99 in 10.0 mi North 3.5 mph - N/A   Clear
8:15 PM 71.6 °F - 62.6 °F 73% 30.00 in 10.0 mi North 4.6 mph - N/A   Clear
8:35 PM 71.6 °F - 60.8 °F 69% 29.99 in 10.0 mi Calm Calm - N/A   Clear
8:55 PM 69.8 °F - 60.8 °F 73% 29.99 in 10.0 mi North 3.5 mph - N/A   Clear
9:15 PM 69.8 °F - 60.8 °F 73% 29.98 in 10.0 mi Calm Calm - N/A   Clear
9:35 PM 68.0 °F - 60.8 °F 78% 29.98 in 10.0 mi Calm Calm - N/A   Clear
9:55 PM 68.0 °F - 60.8 °F 78% 29.99 in 10.0 mi Calm Calm - N/A   Clear
10:15 PM 68.0 °F - 59.0 °F 73% 29.99 in 10.0 mi Calm Calm - N/A   Clear
10:35 PM 68.0 °F - 59.0 °F 73% 30.00 in 10.0 mi Calm Calm - N/A   Clear
10:55 PM 66.2 °F - 60.8 °F 83% 30.01 in 10.0 mi Calm Calm - N/A   Clear
11:15 PM 66.2 °F - 59.0 °F 78% 30.01 in 10.0 mi Calm Calm - N/A   Clear
11:35 PM 64.4 °F - 60.8 °F 88% 30.01 in 10.0 mi Calm Calm - N/A   Clear
11:55 PM 64.4 °F - 60.8 °F 88% 30.02 in 10.0 mi NNE 3.5 mph - N/A   Clear